User: anonymous   Login
Location: Unspecified
(0.0000°N, 0.0000°E)
Time: 22:18:29
(UTC+00:00)
Language:

OBJECT A - Orbit

View from above orbital plane
View from above orbital plane
View from above satellite
View from above satellite

Ground track
Ground track

The orbit is defined by the following mean orbital elements,

1 60203U          26145.09284634 +.00000000 +00000-0 +56866-3 0 00002
2 60203  97.2316   2.9666 0007673 293.6203  66.4250 15.63465099    09
Epoch (UTC): 25 May 2026 02:13:41
Eccentricity: 0.0007673
inclination: 97.2316°
perigee height: 372 km
apogee height: 383 km
right ascension of ascending node: 2.9666°
argument of perigee: 293.6203°
revolutions per day: 15.63465099
mean anomaly at epoch: 66.4250°

The dashed part of the orbit path shows where the satellite is in the earth's shadow,  

DLR